Hoquiam, WA

3:40 PM PDT on August 18, 2017 (GMT -0700)
Bowerman

Weather History for KHQM - August, 2013

Change the Weather History Date:

Saturday, August 17, 2013

  Actual Average Record
Temperature  
Mean Temperature 64 °F 61 °F  
Max Temperature 68 °F 68 °F 78 °F (1977)
Min Temperature 59 °F 54 °F 44 °F (1955)
Degree Days  
Heating Degree Days 1 4  
Month to date heating degree days 69 68  
Since 1 June heating degree days 391 478  
Cooling Degree Days 0 0  
Month to date cooling degree days 0 0  
Year to date cooling degree days 11 9  
Since 1 June cooling degree days 8 8  
Growing Degree Days 12 (Base 50)    
Moisture  
Dew Point 60 °F    
Average Humidity 87    
Maximum Humidity 100    
Minimum Humidity 73    
Precipitation  
Precipitation 0.02 in 0.05 in 0.36 in (1980)
Month to date precipitation 0.63 0.55  
Year to date precipitation 33.19 36.85  
Sea Level Pressure  
Sea Level Pressure 30.09 in    
Wind  
Wind Speed 6 mph (SSW)    
Max Wind Speed 13 mph    
Max Gust Speed 15 mph    
Visibility 7 miles    
Events Rain    
T = Trace of Precipitation, MM = Missing Value Source: NWS Daily Summary

Daily Weather History Graph

Daily Weather History Graph

Search for Another Location

Airport or City:

Trip Planner

Search our weather history database for the weather conditions in past years. The results will help you decide how hot, cold, wet, or windy it might be!

Date:

Astronomy

Aug. 17, 2013 Rise Set
Actual Time 6:16 AM PDT 8:22 PM PDT
Civil Twilight 5:43 AM PDT 8:55 PM PDT
Nautical Twilight 5:01 AM PDT 9:36 PM PDT
Astronomical Twilight 4:16 AM PDT 10:21 PM PDT
Moon 5:49 PM PDT (8/17) 2:17 AM PDT (8/17)
Length of Visible Light 15h 12m
Length of Day
14h 06m
Waxing Gibbous, 85% of the Moon is Illuminated
Aug 17
Waxing Gibbous
Aug 20
Full
Aug 28
Last Quarter
Sep 5
New
Sep 12
First Quarter

Hourly Weather History & Observations

Time (PDT) Temp. Dew Point Humidity Pressure Visibility Wind Dir Wind Speed Gust Speed Precip Events Conditions
12:53 AM 59.0 °F 57.0 °F 93% 30.06 in 10.0 mi SSE 5.8 mph - N/A   Overcast
1:53 AM 59.0 °F 57.0 °F 93% 30.06 in 10.0 mi SSE 4.6 mph - N/A   Overcast
2:53 AM 60.1 °F 57.0 °F 90% 30.06 in 9.0 mi Calm Calm - N/A   Overcast
3:53 AM 60.1 °F 57.0 °F 90% 30.06 in 5.0 mi Calm Calm - 0.01 in   Overcast
4:11 AM 59.0 °F 57.2 °F 94% 30.05 in 2.0 mi Calm Calm - N/A   Overcast
4:32 AM 59.0 °F 57.2 °F 94% 30.05 in 1.5 mi Calm Calm - N/A   Overcast
4:53 AM 59.0 °F 57.9 °F 96% 30.05 in 1.8 mi ENE 4.6 mph - N/A   Overcast
5:06 AM 59.0 °F 59.0 °F 100% 30.04 in 1.8 mi ENE 3.5 mph - N/A   Overcast
5:18 AM 59.0 °F 57.2 °F 94% 30.04 in 2.0 mi ENE 4.6 mph - N/A   Overcast
5:34 AM 59.0 °F 59.0 °F 100% 30.04 in 3.0 mi ENE 3.5 mph - N/A   Overcast
5:53 AM 59.0 °F 59.0 °F 100% 30.06 in 4.0 mi Calm Calm - 0.01 in   Overcast
6:43 AM 60.8 °F 59.0 °F 94% 30.06 in 1.8 mi Calm Calm - 0.00 in Rain Light Rain
6:53 AM 60.1 °F 59.0 °F 96% 30.07 in 3.0 mi ENE 3.5 mph - 0.00 in   Overcast
7:53 AM 61.0 °F 60.1 °F 97% 30.08 in 10.0 mi South 3.5 mph - N/A   Overcast
8:53 AM 62.1 °F 60.1 °F 93% 30.09 in 10.0 mi SSW 6.9 mph - N/A   Overcast
9:53 AM 63.0 °F 61.0 °F 93% 30.10 in 10.0 mi South 8.1 mph - N/A   Overcast
10:26 AM 62.6 °F 60.8 °F 94% 30.09 in 1.8 mi SSW 8.1 mph - N/A   Overcast
10:40 AM 62.6 °F 60.8 °F 94% 30.09 in 3.0 mi South 10.4 mph - N/A   Overcast
10:53 AM 62.1 °F 61.0 °F 96% 30.11 in 3.0 mi South 11.5 mph - N/A   Overcast
11:01 AM 62.6 °F 60.8 °F 94% 30.10 in 2.0 mi SSW 11.5 mph - N/A   Overcast
11:14 AM 62.6 °F 60.8 °F 94% 30.10 in 1.8 mi SSW 11.5 mph - N/A   Overcast
11:37 AM 62.6 °F 62.6 °F 100% 30.11 in 3.0 mi SSW 11.5 mph - N/A   Overcast
11:53 AM 63.0 °F 62.1 °F 97% 30.12 in 10.0 mi SSW 9.2 mph - N/A   Overcast
12:53 PM 63.0 °F 62.1 °F 97% 30.12 in 6.0 mi SSW 8.1 mph - 0.00 in   Overcast
1:53 PM 64.0 °F 61.0 °F 90% 30.12 in 10.0 mi SW 5.8 mph - N/A   Overcast
2:53 PM 64.9 °F 60.1 °F 84% 30.12 in 10.0 mi South 5.8 mph - N/A   Overcast
3:53 PM 66.0 °F 60.1 °F 81% 30.11 in 10.0 mi SSW 8.1 mph - N/A   Overcast
4:08 PM 64.4 °F 60.8 °F 88% 30.09 in 10.0 mi SSW 8.1 mph - N/A   Overcast
4:53 PM 66.9 °F 60.1 °F 79% 30.11 in 10.0 mi SSW 9.2 mph - N/A   Overcast
5:53 PM 66.9 °F 59.0 °F 76% 30.10 in 10.0 mi West 10.4 mph - N/A   Mostly Cloudy
6:53 PM 66.0 °F 57.9 °F 75% 30.09 in 10.0 mi WSW 9.2 mph - N/A   Clear
7:53 PM 63.0 °F 59.0 °F 87% 30.09 in 10.0 mi SW 9.2 mph - N/A   Clear
8:28 PM 62.6 °F 60.8 °F 94% 30.09 in 10.0 mi SW 9.2 mph - N/A   Overcast
8:42 PM 62.6 °F 60.8 °F 94% 30.09 in 10.0 mi SW 9.2 mph - N/A   Overcast
8:53 PM 62.1 °F 60.1 °F 93% 30.10 in 10.0 mi SW 8.1 mph - N/A   Overcast
9:53 PM 61.0 °F 60.1 °F 97% 30.12 in 10.0 mi SW 6.9 mph - N/A   Overcast
10:01 PM 60.8 °F 60.8 °F 100% 30.10 in 10.0 mi SW 5.8 mph - N/A   Overcast
10:53 PM 61.0 °F 60.1 °F 97% 30.12 in 10.0 mi WSW 3.5 mph - N/A   Overcast
11:42 PM 60.8 °F 60.8 °F 100% 30.10 in 10.0 mi SSW 4.6 mph - N/A   Overcast
11:53 PM 61.0 °F 60.1 °F 97% 30.12 in 10.0 mi South 4.6 mph - N/A   Overcast